Weather History for KHLR - October, 2013

Change the Weather History Date:

Wednesday, October 30, 2013

  Actual Average Record
Temperature  
Mean Temperature 76 °F -  
Max Temperature 82 °F 73 °F 86 °F (1996)
Min Temperature 71 °F 56 °F 45 °F (2010)
Cooling Degree Days 12    
Growing Degree Days 26 (Base 50)    
Moisture  
Dew Point 71 °F    
Average Humidity 88    
Maximum Humidity 97    
Minimum Humidity 67    
Precipitation  
Precipitation 0.33 in - - ()
Sea Level Pressure  
Sea Level Pressure 29.99 in    
Wind  
Wind Speed 7 mph (SE)    
Max Wind Speed 13 mph    
Max Gust Speed 17 mph    
Visibility 9 miles    
Events Thunderstorm    
Averages and records for this station are not official NWS values.
T = Trace of Precipitation, MM = Missing Value Source: NWS Daily Summary

Daily Weather History Graph

Daily Weather History Graph

Search for Another Location

Airport or City:

Trip Planner

Search our weather history database for the weather conditions in past years. The results will help you decide how hot, cold, wet, or windy it might be!

Date:

Astronomy

Oct. 30, 2013 Rise Set
Actual Time 7:44 AM CDT 6:43 PM CDT
Civil Twilight 7:19 AM CDT 7:08 PM CDT
Nautical Twilight 6:51 AM CDT 7:37 PM CDT
Astronomical Twilight 6:23 AM CDT 8:05 PM CDT
Moon 3:50 AM CDT (10/30) 4:16 PM CDT (10/30)
Length of Visible Light 11h 48m
Length of Day
10h 58m
Waning Crescent, 17% of the Moon is Illuminated
Oct 30
Waning Crescent
Nov 3
New
Nov 9
First Quarter
Nov 17
Full
Nov 25
Last Quarter

Hourly Weather History & Observations

Time (CDT) Temp. Heat Index Dew Point Humidity Pressure Visibility Wind Dir Wind Speed Gust Speed Precip Events Conditions
12:07 AM 73.4 °F - 68.0 °F 83% 30.05 in 10.0 mi SE 10.4 mph - N/A   Mostly Cloudy
12:56 AM 73.0 °F - 68.0 °F 84% 30.11 in 10.0 mi SE 9.2 mph - N/A   Mostly Cloudy
1:56 AM 73.0 °F - 69.1 °F 87% 30.11 in 10.0 mi SE 5.8 mph - N/A   Overcast
2:56 AM 72.0 °F - 69.1 °F 91% 30.09 in 10.0 mi ESE 6.9 mph - 0.03 in   Overcast
3:18 AM 71.6 °F - 69.8 °F 94% 30.01 in 10.0 mi ESE 8.1 mph - N/A   Overcast
3:33 AM 71.6 °F - 69.8 °F 94% 30.01 in 10.0 mi SE 6.9 mph - N/A   Overcast
3:56 AM 72.0 °F - 69.1 °F 91% 30.07 in 10.0 mi ESE 4.6 mph - N/A   Overcast
4:04 AM 71.6 °F - 69.8 °F 94% 30.01 in 10.0 mi ESE 3.5 mph - N/A   Overcast
4:29 AM 71.6 °F - 69.8 °F 94% 30.00 in 10.0 mi East 3.5 mph - N/A   Overcast
4:56 AM 72.0 °F - 70.0 °F 93% 30.07 in 8.0 mi Calm Calm - N/A   Overcast
5:56 AM 72.0 °F - 70.0 °F 93% 30.04 in 4.0 mi East 3.5 mph - 0.04 in   Overcast
6:56 AM 72.0 °F - 70.0 °F 93% 30.04 in 8.0 mi ESE 6.9 mph - 0.10 in   Overcast
7:56 AM 72.0 °F - 71.1 °F 97% 30.03 in 4.0 mi East 3.5 mph - 0.04 in   Overcast
8:56 AM 73.0 °F - 71.1 °F 93% 30.04 in 5.0 mi ESE 5.8 mph - 0.07 in   Overcast
9:56 AM 73.9 °F - 72.0 °F 93% 30.04 in 10.0 mi SE 10.4 mph - 0.04 in   Overcast
10:42 AM 75.2 °F - 73.4 °F 94% 29.98 in 10.0 mi SE 6.9 mph - N/A   Overcast
10:56 AM 75.9 °F - 73.0 °F 91% 30.04 in 10.0 mi SE 8.1 mph - N/A   Overcast
11:16 AM 75.2 °F - 73.4 °F 94% 29.97 in 10.0 mi SSE 8.1 mph 16.1 mph N/A   Overcast
11:53 AM 77.0 °F - 73.4 °F 89% 29.95 in 10.0 mi SSE 12.7 mph - N/A   Overcast
11:56 AM 77.0 °F - 73.0 °F 88% 30.02 in 10.0 mi SE 6.9 mph 17.3 mph N/A   Overcast
12:13 PM 78.8 °F - 73.4 °F 83% 29.96 in 10.0 mi SSE 11.5 mph - N/A   Mostly Cloudy
12:56 PM 78.1 °F - 73.0 °F 84% 30.01 in 10.0 mi SSE 9.2 mph - N/A   Mostly Cloudy
1:14 PM 78.8 °F - 71.6 °F 78% 29.94 in 10.0 mi South 8.1 mph - N/A   Mostly Cloudy
1:56 PM 79.0 °F - 72.0 °F 79% 29.99 in 10.0 mi South 9.2 mph - N/A   Mostly Cloudy
2:56 PM 81.0 °F 85.2 °F 72.0 °F 74% 29.95 in 10.0 mi South 6.9 mph - N/A   Scattered Clouds
3:56 PM 82.0 °F 86.3 °F 71.1 °F 69% 29.93 in 10.0 mi South 6.9 mph - N/A   Scattered Clouds
4:56 PM 82.0 °F 85.9 °F 70.0 °F 67% 29.92 in 10.0 mi SSW 9.2 mph 17.3 mph N/A   Mostly Cloudy
8:56 PM 75.9 °F - 73.0 °F 91% 29.91 in 10.0 mi SE 4.6 mph - N/A   Overcast
9:08 PM 75.2 °F - 73.4 °F 94% 29.84 in 10.0 mi ESE 3.5 mph - N/A Thunderstorm Thunderstorm
9:28 PM 75.2 °F - 73.4 °F 94% 29.83 in 10.0 mi ESE 4.6 mph - 0.01 in   Overcast
9:56 PM 75.0 °F - 72.0 °F 90% 29.90 in 10.0 mi ESE 3.5 mph - 0.01 in   Overcast
10:06 PM 75.2 °F - 71.6 °F 89% 29.84 in 10.0 mi SE 3.5 mph - N/A   Overcast
10:56 PM 73.9 °F - 71.1 °F 91% 29.91 in 10.0 mi Calm Calm - N/A   Overcast
11:56 PM 73.9 °F - 72.0 °F 93% 29.91 in 10.0 mi SE 6.9 mph - N/A   Overcast